LKKB Weather Reports


time (UTC)temp
C
wind
direction
speed
KPH
gust
KPH
rain 1hr
cm
rain 24hr
cm
rain mn
cm
humidity
%
barometer
mb
20260831213103 16 220 14.5 0.0 0.00 0.00 0.00 77 1017.0
20260831211851 17 220 14.5 0.0 0.00 0.00 0.00 63
20260831210103 17 220 14.5 0.0 0.00 0.00 0.00 72 1016.0
20260831203103 17 230 14.5 0.0 0.00 0.00 0.00 72 1016.0
20260831202051 18 220 14.5 0.0 0.00 0.00 0.00 59
20260831200103 17 210 14.5 0.0 0.00 0.00 0.00 67 1016.0
20260831193103 17 210 14.5 0.0 0.00 0.00 0.00 67 1016.0
20260831192055 21 230 14.5 0.0 0.00 0.00 0.00 49
20260831183103 21 250 14.5 0.0 0.00 0.00 0.00 52 1015.0
20260831181852 22 250 14.5 0.0 0.00 0.00 0.00 46
20260831180104 21 250 14.5 0.0 0.00 0.00 0.00 52 1015.0
20260831173102 22 240 20.9 0.0 0.00 0.00 0.00 49 1015.0
20260831172052 22 240 25.7 0.0 0.00 0.00 0.00 43
20260831163102 23 230 25.7 0.0 0.00 0.00 0.00 44 1014.0
20260831162153 23 240 22.5 0.0 0.00 0.00 0.00 44
20260831160103 23 240 25.7 0.0 0.00 0.00 0.00 47 1014.0
20260831153103 23 240 22.5 0.0 0.00 0.00 0.00 47 1015.0
20260831151854 23 250 25.7 0.0 0.00 0.00 0.00 44
20260831151503 22 240 22.5 41.8 0.00 0.00 0.00 46 1015.0
20260831150211 23 240 27.4 0.0 0.00 0.00 0.00 47 1015.0
20260831143102 23 280 20.9 0.0 0.00 0.00 0.00 47 1015.0
20260831141951 22 270 19.3 0.0 0.00 0.00 0.00 46
20260831140104 22 270 16.1 0.0 0.00 0.00 0.00 49 1015.0
20260831133103 23 260 19.3 0.0 0.00 0.00 0.00 50 1015.0
20260831131951 23 260 25.7 0.0 0.00 0.00 0.00 50
20260831123102 22 250 25.7 0.0 0.00 0.00 0.00 56 1015.0
20260831121854 22 240 22.5 0.0 0.00 0.00 0.00 60
20260831120103 21 240 22.5 0.0 0.00 0.00 0.00 64 1015.0
20260831113103 22 240 25.7 0.0 0.00 0.00 0.00 64 1015.0
20260831111950 21 240 29.0 0.0 0.00 0.00 0.00 68
20260831104703 21 230 25.7 0.0 0.00 0.00 0.00 77 1015.0
20260831103103 20 210 14.5 0.0 0.00 0.00 0.00 82 1015.0
20260831102153 18 200 14.5 0.0 0.00 0.00 0.00 82
20260831100103 18 200 19.3 0.0 0.00 0.00 0.00 88 1015.0
20260831094403 18 200 19.3 0.0 0.00 0.00 0.00 88 1015.0
20260831093103 18 190 16.1 0.0 0.00 0.00 0.00 88 1015.0
20260831091852 17 180 11.3 0.0 0.00 0.00 0.00 88
20260831083103 17 220 8.0 0.0 0.00 0.00 0.00 93 1015.0
20260831082024 17 140 3.2 0.0 0.00 0.00 0.00 93
20260831080209 16 100 4.8 0.0 0.00 0.00 0.00 100 1014.0
20260831073903 16 100 8.0 0.0 0.00 0.00 0.00 100 1015.0
20260831073102 16 0 1.6 0.0 0.00 0.00 0.00 100 1015.0
20260831072104 16 0 1.6 0.0 0.00 0.00 0.00 100 1015.0
20260831072040 16 260 11.3 0.0 0.00 0.00 0.00 93
20260831071002 16 240 9.7 0.0 0.00 0.00 0.00 100 1015.0
20260831065031 16 280 19.3 0.0 0.00 0.00 0.00 100 1015.0
20260831063703 17 250 35.4 56.3 0.00 0.00 0.00 82 1015.0
20260831063102 18 250 25.7 0.0 0.00 0.00 0.00 82 1015.0
20260831061955 17 60 3.2 0.0 0.00 0.00 0.00 82
20260831061702 18 0 3.2 0.0 0.00 0.00 0.00 77 1013.0
20260831053103 17 0 0.0 0.0 0.00 0.00 0.00 82 1013.0
20260831052108 17 200 3.2 0.0 0.00 0.00 0.00 82
20260831050103 17 200 3.2 0.0 0.00 0.00 0.00 82 1013.0
20260831043102 17 190 8.0 0.0 0.00 0.00 0.00 82 1014.0
20260831042154 17 190 8.0 0.0 0.00 0.00 0.00 82
20260831040103 17 180 8.0 0.0 0.00 0.00 0.00 82 1014.0
20260831033103 17 200 4.8 0.0 0.00 0.00 0.00 82 1014.0
20260831031852 17 190 8.0 0.0 0.00 0.00 0.00 82
20260831023102 17 190 4.8 0.0 0.00 0.00 0.00 88 1014.0
20260831021951 17 200 8.0 0.0 0.00 0.00 0.00 77
20260831020103 17 200 8.0 0.0 0.00 0.00 0.00 82 1014.0
20260831013102 17 180 4.8 0.0 0.00 0.00 0.00 77 1015.0
20260831011950 17 200 8.0 0.0 0.00 0.00 0.00 77
20260831003103 17 190 9.7 0.0 0.00 0.00 0.00 77 1015.0
20260831001852 17 190 11.3 0.0 0.00 0.00 0.00 77
20260831000103 18 200 9.7 0.0 0.00 0.00 0.00 72 1015.0
20260830233102 17 210 8.0 0.0 0.00 0.00 0.00 77 1015.0
20260830232052 18 180 8.0 0.0 0.00 0.00 0.00 72
20260830230103 18 170 9.7 0.0 0.00 0.00 0.00 72 1015.0
20260830223103 18 180 4.8 0.0 0.00 0.00 0.00 72 1015.0
20260830222053 18 170 8.0 0.0 0.00 0.00 0.00 72